Flag for U.S.A. Weather past 2 weeks in Irvine, California, U.S.A.

Now
84 °F

Sunny.


Feels Like: 81 °F
Forecast: 57 / 90 °F
Wind: 8 mph from Southwest

Location: John Wayne Airport-Orange County Airport

Current Time: Mar 26, 2015 at 4:15:07 PM

Latest Report: Mar 26, 2015 at 3:53 PM


Visibility: 10 mi

Pressure: 29.98 "Hg

Humidity: 21%

Dew point: 40 °F

Location of IrvineLocation

Historic Weather in Irvine — Graph

°F

Irvine temperature yesterday

Maximum temperature yesterday: 74 °F (at 12:53 PM)
Minimum temperature yesterday: 58 °F (at 6:53 AM)
Average temperature yesterday: 67 °F

Past Weeks' High & Low Weather Summary

 TemperatureHumidityPressure
High92 °F (Mar 13, 1:53 PM)86% (Mar 19, 9:53 PM)30.19 "Hg (Mar 19, 9:53 PM)
Low55 °F (Mar 12, 6:53 AM)8% (Mar 13, 1:53 PM)29.87 "Hg (Mar 16, 5:53 PM)
Average68 °F56%30.02 "Hg
* Reported Mar 11 2:53 PM — Mar 26 2:53 PM, Irvine, Weather by CustomWeather, © 2015

Note: Actual official high and low records may vary slightly from our data, if they occured in-between our weather recording intervals... More about our weather records

Advertising

Irvine weather history for previous 24 hours

 ConditionsComfort  
Time TempWeatherWind HumidityBarometerVisibility
2:53 PM
Thu, Mar 26
83 °FPassing clouds.9 mph28%30.00 "Hg10 mi
1:53 PM83 °FPassing clouds.13 mph31%30.02 "Hg10 mi
12:53 PM81 °FPassing clouds.14 mph41%30.04 "Hg10 mi
11:53 AM87 °FPassing clouds.3 mph17%30.06 "Hg10 mi
10:53 AM80 °FPassing clouds.No wind24%30.07 "Hg10 mi
9:53 AM72 °FPassing clouds.No wind49%30.08 "Hg10 mi
8:53 AM68 °FPassing clouds.No wind57%30.07 "Hg10 mi
7:53 AM62 °FPassing clouds.No wind67%30.06 "Hg10 mi
6:53 AM59 °FPassing clouds.No wind72%30.05 "Hg10 mi
5:53 AM60 °FClear.No wind69%30.03 "Hg10 mi
4:53 AM60 °FClear.No wind72%30.03 "Hg10 mi
3:53 AM61 °FClear.No wind75%30.03 "Hg10 mi
2:53 AM62 °FClear.No wind75%30.03 "Hg10 mi
1:53 AM63 °FClear.No wind70%30.03 "Hg10 mi
12:53 AM64 °FClear.3 mph65%30.03 "Hg10 mi
11:53 PM
Wed, Mar 25
63 °FClear.3 mph70%30.03 "Hg10 mi
10:53 PM68 °FClear.No wind63%30.02 "Hg10 mi
9:53 PM69 °FClear.No wind61%30.02 "Hg10 mi
8:53 PM69 °FClear.No wind61%30.01 "Hg10 mi
7:53 PM69 °FSunny.No wind59%30.00 "Hg10 mi
6:53 PM69 °FSunny.5 mph61%29.99 "Hg10 mi
5:53 PM72 °FPassing clouds.7 mph53%29.99 "Hg10 mi
4:53 PM73 °FPassing clouds.5 mph50%29.99 "Hg10 mi
Weather by CustomWeather, © 2015

See weather overviewHow to use our weather pages